When you browse on this site, cookies collect data to enhance your experience and personalize the content and advertising you see.
Visit our Privacy Policy to learn more. By continuing to use the site, you agree to this use of cookies and data.
  • In Latvia
  • List of Countries
  • For 7 days
  • Water Temperature
  • Weather Map
  • Weather Widgets
  • user-avatar
    Login

    Hourly Weather La Massana

    Today, 3 June, Wednesday

    Time Temperature Precipitation Wind Pressure Humidity
    00:00 +8°C° 0 mm 1 mps 608 mmHg 92%
    01:00 +8°C° 0 mm 1 mps 608 mmHg 92%
    02:00 +8°C° 0 mm 1 mps 608 mmHg 92%
    03:00 +8°C° 0 mm 1 mps 607 mmHg 92%
    04:00 +9°C° 0 mm 1 mps 607 mmHg 90%
    05:00 +10°C° 0 mm 1 mps 608 mmHg 89%
    06:00 +11°C° 0 mm 1 mps 608 mmHg 87%
    07:00 +12°C° 0.5 mm 1 mps 608 mmHg 82%
    08:00 +13°C° 0.5 mm 1 mps 609 mmHg 78%
    09:00 +15°C° 0.5 mm 1 mps 609 mmHg 74%
    10:00 +15°C° 1.1 mm 1 mps 609 mmHg 74%
    11:00 +15°C° 1.1 mm 1 mps 608 mmHg 75%
    12:00 +15°C° 1.1 mm 1 mps 608 mmHg 75%
    13:00 +14°C° 1.4 mm 1 mps 607 mmHg 79%
    14:00 +13°C° 1.4 mm 1 mps 607 mmHg 82%
    15:00 +13°C° 1.4 mm 2 mps 606 mmHg 86%
    16:00 +12°C° 1.1 mm 1 mps 606 mmHg 87%
    17:00 +12°C° 1.1 mm 1 mps 605 mmHg 87%
    18:00 +10°C° 1.1 mm 0 mps 605 mmHg 88%
    19:00 +10°C° 0.9 mm 0 mps 605 mmHg 91%
    20:00 +9°C° 0.9 mm 0 mps 605 mmHg 94%
    21:00 +8°C° 0.9 mm 0 mps 605 mmHg 97%
    22:00 +8°C° 1 mm 0 mps 604 mmHg 97%
    23:00 +8°C° 1 mm 0 mps 604 mmHg 98%

    Tomorrow, 4 June, Thursday

    Time Temperature Precipitation Wind Pressure Humidity
    00:00 +8°C° 1 mm 0 mps 603 mmHg 98%
    01:00 +8°C° 0.9 mm 0 mps 603 mmHg 98%
    02:00 +8°C° 0.9 mm 1 mps 602 mmHg 98%
    03:00 +8°C° 0.9 mm 1 mps 602 mmHg 98%
    04:00 +7°C° 3 mm 1 mps 602 mmHg 98%
    05:00 +7°C° 3 mm 1 mps 601 mmHg 98%
    06:00 +5°C° 3 mm 2 mps 601 mmHg 97%
    07:00 +7°C° 1.4 mm 1 mps 601 mmHg 96%
    08:00 +7°C° 1.4 mm 1 mps 601 mmHg 94%
    09:00 +7°C° 1.4 mm 1 mps 602 mmHg 92%
    10:00 +8°C° 0.3 mm 1 mps 602 mmHg 90%
    11:00 +8°C° 0.3 mm 1 mps 602 mmHg 87%
    12:00 +8°C° 0.3 mm 1 mps 602 mmHg 84%
    13:00 +6°C° 1.1 mm 2 mps 601 mmHg 87%
    14:00 +5°C° 1.1 mm 2 mps 601 mmHg 90%
    15:00 +5°C° 1.1 mm 2 mps 600 mmHg 92%
    16:00 +5°C° 0.5 mm 2 mps 600 mmHg 90%
    17:00 +5°C° 0.5 mm 2 mps 601 mmHg 89%
    18:00 +5°C° 0.5 mm 2 mps 601 mmHg 87%
    19:00 +5°C° 0.5 mm 2 mps 601 mmHg 89%
    20:00 +4°C° 0.5 mm 2 mps 602 mmHg 92%
    21:00 +4°C° 0.5 mm 2 mps 602 mmHg 94%
    22:00 +3°C° 0.1 mm 2 mps 602 mmHg 95%
    23:00 +3°C° 0.1 mm 2 mps 602 mmHg 95%

    Day after tomorrow, 5 June, Friday

    Time Temperature Precipitation Wind Pressure Humidity
    00:00 +3°C° 0.1 mm 2 mps 602 mmHg 95%
    01:00 +2°C° 0.1 mm 2 mps 602 mmHg 94%
    02:00 +2°C° 0.1 mm 2 mps 602 mmHg 94%
    03:00 +2°C° 0.1 mm 2 mps 602 mmHg 93%
    04:00 +2°C° 0 mm 2 mps 603 mmHg 92%
    05:00 +2°C° 0 mm 2 mps 603 mmHg 90%
    06:00 +2°C° 0 mm 2 mps 603 mmHg 89%
    07:00 +4°C° 0 mm 2 mps 604 mmHg 79%
    08:00 +7°C° 0 mm 2 mps 606 mmHg 68%
    09:00 +9°C° 0 mm 2 mps 607 mmHg 58%
    10:00 +10°C° 0 mm 2 mps 607 mmHg 56%
    11:00 +12°C° 0 mm 2 mps 608 mmHg 53%
    12:00 +14°C° 0 mm 2 mps 608 mmHg 51%
    13:00 +14°C° 0 mm 2 mps 608 mmHg 53%
    14:00 +14°C° 0 mm 2 mps 608 mmHg 55%
    15:00 +14°C° 0 mm 2 mps 608 mmHg 57%
    16:00 +13°C° 0 mm 2 mps 608 mmHg 64%
    17:00 +11°C° 0 mm 1 mps 608 mmHg 72%
    18:00 +10°C° 0 mm 1 mps 607 mmHg 80%
    19:00 +9°C° 0 mm 1 mps 607 mmHg 84%
    20:00 +8°C° 0 mm 1 mps 607 mmHg 88%
    21:00 +6°C° 0 mm 0 mps 607 mmHg 92%
    22:00 +6°C° 0 mm 0 mps 607 mmHg 93%
    23:00 +5°C° 0 mm 0 mps 607 mmHg 94%

    6 June, Saturday

    Time Temperature Precipitation Wind Pressure Humidity
    00:00 +5°C° 0 mm 0 mps 606 mmHg 95%
    01:00 +5°C° 0 mm 0 mps 606 mmHg 94%
    02:00 +5°C° 0 mm 0 mps 606 mmHg 94%
    03:00 +5°C° 0 mm 0 mps 606 mmHg 94%
    04:00 +6°C° 0 mm 0 mps 606 mmHg 91%
    05:00 +7°C° 0 mm 0 mps 607 mmHg 88%
    06:00 +7°C° 0 mm 0 mps 607 mmHg 85%
    07:00 +10°C° 0 mm 1 mps 608 mmHg 78%
    08:00 +12°C° 0 mm 1 mps 609 mmHg 70%
    09:00 +14°C° 0 mm 2 mps 610 mmHg 62%
    10:00 +13°C° 0.3 mm 2 mps 609 mmHg 67%
    11:00 +13°C° 0.3 mm 2 mps 609 mmHg 71%
    12:00 +13°C° 0.3 mm 2 mps 608 mmHg 76%
    13:00 +13°C° 0.8 mm 2 mps 608 mmHg 79%
    14:00 +12°C° 0.8 mm 2 mps 608 mmHg 82%
    15:00 +12°C° 0.8 mm 2 mps 607 mmHg 86%
    16:00 +12°C° 0.8 mm 1 mps 607 mmHg 88%
    17:00 +11°C° 0.8 mm 1 mps 607 mmHg 89%
    18:00 +11°C° 0.8 mm 1 mps 607 mmHg 91%
    19:00 +10°C° 1.2 mm 1 mps 607 mmHg 93%
    20:00 +9°C° 1.2 mm 1 mps 607 mmHg 94%
    21:00 +9°C° 1.2 mm 1 mps 607 mmHg 96%
    22:00 +7°C° 0.4 mm 0 mps 607 mmHg 96%
    23:00 +7°C° 0.4 mm 0 mps 607 mmHg 96%

    7 June, Sunday

    Time Temperature Precipitation Wind Pressure Humidity
    00:00 +7°C° 0.4 mm 0 mps 607 mmHg 95%
    01:00 +7°C° 0.1 mm 0 mps 606 mmHg 95%
    02:00 +7°C° 0.1 mm 0 mps 606 mmHg 95%
    03:00 +7°C° 0.1 mm 0 mps 606 mmHg 95%
    04:00 +7°C° 0.6 mm 0 mps 607 mmHg 95%
    05:00 +8°C° 0.6 mm 1 mps 607 mmHg 95%
    06:00 +8°C° 0.6 mm 1 mps 607 mmHg 96%
    07:00 +8°C° 0.5 mm 1 mps 608 mmHg 95%
    08:00 +8°C° 0.5 mm 1 mps 608 mmHg 94%
    09:00 +9°C° 0.5 mm 1 mps 608 mmHg 94%
    10:00 +9°C° 0.9 mm 1 mps 608 mmHg 93%
    11:00 +9°C° 0.9 mm 1 mps 608 mmHg 93%
    12:00 +9°C° 0.9 mm 1 mps 608 mmHg 93%
    13:00 +9°C° 0.9 mm 1 mps 608 mmHg 92%
    14:00 +9°C° 0.9 mm 1 mps 608 mmHg 92%
    15:00 +9°C° 0.9 mm 1 mps 608 mmHg 91%
    16:00 +8°C° 0.7 mm 1 mps 608 mmHg 92%
    17:00 +8°C° 0.7 mm 1 mps 608 mmHg 93%
    18:00 +8°C° 0.7 mm 1 mps 608 mmHg 94%
    19:00 +7°C° 0.9 mm 1 mps 608 mmHg 95%
    20:00 +7°C° 0.9 mm 1 mps 608 mmHg 95%
    21:00 +6°C° 0.9 mm 1 mps 608 mmHg 96%
    22:00 +6°C° 0.1 mm 1 mps 608 mmHg 96%
    23:00 +5°C° 0.1 mm 1 mps 608 mmHg 96%

    8 June, Monday

    Time Temperature Precipitation Wind Pressure Humidity
    00:00 +5°C° 0.1 mm 1 mps 608 mmHg 95%
    01:00 +5°C° 0.1 mm 1 mps 608 mmHg 95%
    02:00 +5°C° 0.1 mm 1 mps 608 mmHg 95%
    03:00 +5°C° 0.1 mm 1 mps 608 mmHg 95%
    04:00 +5°C° 0 mm 1 mps 608 mmHg 94%
    05:00 +5°C° 0 mm 1 mps 608 mmHg 93%
    06:00 +5°C° 0 mm 1 mps 609 mmHg 92%
    07:00 +6°C° 0 mm 1 mps 609 mmHg 86%
    08:00 +7°C° 0 mm 1 mps 610 mmHg 81%
    09:00 +8°C° 0 mm 1 mps 610 mmHg 75%
    10:00 +9°C° 0 mm 1 mps 611 mmHg 70%
    11:00 +10°C° 0 mm 1 mps 611 mmHg 65%
    12:00 +10°C° 0 mm 2 mps 612 mmHg 60%
    13:00 +10°C° 0.1 mm 2 mps 611 mmHg 63%
    14:00 +11°C° 0.1 mm 1 mps 611 mmHg 66%
    15:00 +10°C° 0.1 mm 1 mps 610 mmHg 70%
    16:00 +10°C° 0.1 mm 1 mps 610 mmHg 75%
    17:00 +9°C° 0.1 mm 1 mps 610 mmHg 80%
    18:00 +8°C° 0.1 mm 1 mps 609 mmHg 84%
    19:00 +7°C° 0 mm 1 mps 609 mmHg 86%
    20:00 +7°C° 0 mm 1 mps 610 mmHg 89%
    21:00 +5°C° 0 mm 0 mps 610 mmHg 91%
    22:00 +4°C° 0 mm 0 mps 610 mmHg 92%
    23:00 +4°C° 0 mm 0 mps 609 mmHg 93%
    Show more